| time (UTC) | temp C | wind direction | speed KPH | gust KPH | rain 1hr cm | rain 24hr cm | rain mn cm | humidity % | barometer mb |
| 20260506112036 | 15 | 0.0 | 3.2 | 0.00 | 1.65 | 1.04 | 86 | 1006.5 | |
| 20260506111059 | 15 | 0.0 | 1.6 | 0.00 | 1.68 | 1.04 | 87 | 1006.8 | |
| 20260506110036 | 15 | 0.0 | 1.6 | 0.00 | 1.68 | 1.04 | 88 | 1006.9 | |
| 20260506105059 | 15 | 0 | 0.0 | 4.8 | 0.00 | 1.70 | 1.04 | 89 | 1006.9 |
| 20260506104036 | 15 | 188 | 3.2 | 22.5 | 0.00 | 1.70 | 1.04 | 90 | 1007.0 |
| 20260506103100 | 15 | 0.0 | 1.6 | 0.00 | 1.75 | 1.04 | 93 | 1006.8 | |
| 20260506102035 | 14 | 0.0 | 1.6 | 0.00 | 1.78 | 1.04 | 95 | 1007.0 | |
| 20260506101059 | 14 | 0.0 | 1.6 | 0.00 | 1.78 | 1.04 | 98 | 1006.9 | |
| 20260506100923 | 13 | 0.0 | 1.6 | 0.00 | 1.80 | 1.04 | 99 | 1007.0 | |
| 20260506095100 | 13 | 0.0 | 1.6 | 0.13 | 1.80 | 1.04 | 99 | 1007.0 | |
| 20260506094035 | 13 | 0.0 | 3.2 | 0.18 | 1.83 | 1.04 | 98 | 1007.0 | |
| 20260506093100 | 13 | 0.0 | 1.6 | 0.23 | 1.85 | 1.04 | 97 | 1007.0 | |
| 20260506092038 | 12 | 0.0 | 1.6 | 0.33 | 1.85 | 1.04 | 97 | 1006.9 | |
| 20260506091059 | 12 | 0.0 | 1.6 | 0.53 | 1.88 | 1.04 | 97 | 1006.5 | |
| 20260506090036 | 12 | 0.0 | 1.6 | 0.64 | 1.88 | 1.04 | 97 | 1005.7 | |
| 20260506085101 | 12 | 0.0 | 1.6 | 0.56 | 1.78 | 0.94 | 97 | 1006.0 | |
| 20260506084036 | 12 | 0.0 | 3.2 | 0.51 | 1.70 | 0.86 | 97 | 1006.8 | |
| 20260506083059 | 12 | 0.0 | 3.2 | 0.48 | 1.65 | 0.81 | 97 | 1007.1 | |
| 20260506082036 | 12 | 0.0 | 1.6 | 0.38 | 1.60 | 0.71 | 97 | 1007.2 | |
| 20260506081100 | 12 | 0.0 | 1.6 | 0.18 | 1.42 | 0.51 | 97 | 1007.1 | |
| 20260506080748 | 12 | 0.0 | 1.6 | 0.10 | 1.35 | 0.43 | 97 | 1007.2 | |
| 20260506073059 | 13 | 0.0 | 1.6 | 0.03 | 1.35 | 0.33 | 97 | 1007.0 | |
| 20260506072036 | 13 | 0.0 | 1.6 | 0.03 | 1.42 | 0.33 | 97 | 1007.0 | |
| 20260506071100 | 13 | 0.0 | 3.2 | 0.03 | 1.47 | 0.33 | 97 | 1007.1 | |
| 20260506062035 | 13 | 0.0 | 1.6 | 0.03 | 1.93 | 0.30 | 97 | 1007.3 | |
| 20260506061100 | 13 | 0.0 | 1.6 | 0.05 | 1.98 | 0.30 | 97 | 1007.4 | |
| 20260506060748 | 12 | 0.0 | 3.2 | 0.05 | 1.98 | 0.28 | 97 | 1007.3 | |
| 20260506051100 | 12 | 0.0 | 1.6 | 0.15 | 1.98 | 0.23 | 97 | 1007.6 | |
| 20260506045059 | 12 | 0.0 | 1.6 | 0.05 | 1.88 | 0.15 | 97 | 1007.8 | |
| 20260506044036 | 12 | 0.0 | 1.6 | 0.05 | 1.88 | 0.15 | 97 | 1007.9 | |
| 20260506043100 | 12 | 0.0 | 1.6 | 0.05 | 1.88 | 0.15 | 97 | 1007.9 | |
| 20260506042036 | 12 | 0.0 | 3.2 | 0.05 | 1.85 | 0.13 | 97 | 1008.0 | |
| 20260506041100 | 12 | 0.0 | 1.6 | 0.03 | 1.83 | 0.10 | 97 | 1008.1 | |
| 20260506040748 | 12 | 0.0 | 1.6 | 0.05 | 1.83 | 0.10 | 97 | 1008.2 | |
| 20260506035100 | 12 | 0.0 | 3.2 | 0.05 | 1.83 | 0.10 | 97 | 1008.1 | |
| 20260506034036 | 12 | 0.0 | 3.2 | 0.05 | 1.83 | 0.10 | 97 | 1008.1 | |
| 20260506033100 | 12 | 0.0 | 1.6 | 0.10 | 1.83 | 0.10 | 97 | 1008.1 | |
| 20260506032036 | 12 | 0.0 | 1.6 | 0.05 | 1.80 | 0.05 | 97 | 1008.0 | |
| 20260506031100 | 12 | 0.0 | 1.6 | 0.05 | 1.80 | 0.05 | 97 | 1008.3 | |
| 20260506030036 | 12 | 0.0 | 3.2 | 0.03 | 1.78 | 0.03 | 97 | 1008.6 | |
| 20260506025100 | 12 | 0.0 | 1.6 | 0.03 | 1.78 | 0.03 | 97 | 1008.8 | |
| 20260506024036 | 12 | 0.0 | 1.6 | 0.03 | 1.78 | 0.03 | 97 | 1008.8 | |
| 20260506023101 | 12 | 0.0 | 1.6 | 0.00 | 1.75 | 0.00 | 97 | 1009.0 | |
| 20260506022036 | 12 | 0 | 0.0 | 4.8 | 0.00 | 1.75 | 0.00 | 97 | 1009.1 |
| 20260506021100 | 12 | 106 | 1.6 | 6.4 | 0.00 | 1.75 | 0.00 | 97 | 1009.2 |
| 20260506020748 | 12 | 0.0 | 3.2 | 0.00 | 1.75 | 0.00 | 97 | 1009.3 | |
| 20260506015100 | 12 | 0.0 | 1.6 | 0.00 | 1.75 | 0.00 | 97 | 1009.2 | |
| 20260506014037 | 12 | 0.0 | 3.2 | 0.00 | 1.75 | 0.00 | 97 | 1009.2 | |
| 20260506013100 | 12 | 0.0 | 3.2 | 0.00 | 1.75 | 0.00 | 97 | 1009.2 | |
| 20260506012037 | 12 | 0.0 | 3.2 | 0.00 | 1.75 | 0.00 | 97 | 1009.2 | |
| 20260506011100 | 12 | 0.0 | 1.6 | 0.00 | 1.75 | 0.00 | 97 | 1009.3 | |
| 20260506010037 | 12 | 0.0 | 1.6 | 0.00 | 1.75 | 0.00 | 97 | 1009.5 | |
| 20260506005100 | 12 | 0.0 | 1.6 | 0.00 | 1.75 | 0.00 | 97 | 1009.6 | |
| 20260506004037 | 13 | 0.0 | 1.6 | 0.00 | 1.75 | 0.00 | 97 | 1009.8 | |
| 20260506002036 | 12 | 0.0 | 1.6 | 0.00 | 1.75 | 0.00 | 97 | 1009.9 | |
| 20260506001100 | 12 | 0.0 | 1.6 | 0.00 | 1.75 | 0.00 | 97 | 1010.0 | |
| 20260506000748 | 12 | 0.0 | 1.6 | 0.00 | 1.75 | 0.00 | 97 | 1010.0 | |
| 20260505235101 | 12 | 0.0 | 1.6 | 0.00 | 1.75 | 0.00 | 97 | 1010.2 | |
| 20260505234038 | 12 | 0.0 | 1.6 | 0.00 | 1.75 | 0.00 | 97 | 1010.3 | |
| 20260505233101 | 12 | 0.0 | 1.6 | 0.00 | 1.75 | 0.00 | 97 | 1010.4 | |
| 20260505232037 | 12 | 0.0 | 1.6 | 0.00 | 1.75 | 0.00 | 97 | 1010.3 | |
| 20260505231101 | 12 | 0.0 | 1.6 | 0.00 | 1.75 | 0.00 | 97 | 1010.5 | |
| 20260505230036 | 12 | 0.0 | 1.6 | 0.00 | 1.75 | 0.00 | 97 | 1010.6 | |
| 20260505225102 | 12 | 0.0 | 1.6 | 0.00 | 1.75 | 0.00 | 97 | 1010.6 | |
| 20260505224037 | 12 | 0.0 | 1.6 | 0.00 | 1.75 | 0.00 | 97 | 1010.7 | |
| 20260505223101 | 12 | 0.0 | 1.6 | 0.00 | 1.75 | 0.00 | 97 | 1010.8 | |
| 20260505222036 | 12 | 0.0 | 1.6 | 0.00 | 1.75 | 0.00 | 97 | 1010.8 | |
| 20260505221100 | 12 | 0.0 | 1.6 | 0.00 | 1.75 | 0.00 | 97 | 1010.8 | |
| 20260505220749 | 12 | 0.0 | 1.6 | 0.00 | 1.75 | 0.00 | 97 | 1010.9 | |
| 20260505215100 | 12 | 0.0 | 1.6 | 0.00 | 1.75 | 1.75 | 97 | 1010.9 | |
| 20260505214037 | 12 | 0.0 | 1.6 | 0.00 | 1.75 | 1.75 | 97 | 1011.1 | |
| 20260505213102 | 12 | 0.0 | 1.6 | 0.00 | 1.75 | 1.75 | 97 | 1011.3 | |
| 20260505212037 | 12 | 0.0 | 1.6 | 0.00 | 1.75 | 1.75 | 97 | 1011.4 | |
| 20260505211100 | 12 | 0.0 | 1.6 | 0.03 | 1.75 | 1.75 | 97 | 1011.4 | |
| 20260505210037 | 12 | 0.0 | 1.6 | 0.05 | 1.75 | 1.75 | 97 | 1011.4 | |
| 20260505205101 | 12 | 0.0 | 1.6 | 0.05 | 1.75 | 1.75 | 97 | 1011.5 | |
| 20260505204037 | 12 | 0.0 | 1.6 | 0.10 | 1.75 | 1.75 | 97 | 1011.6 | |
| 20260505203101 | 12 | 0.0 | 1.6 | 0.10 | 1.75 | 1.75 | 97 | 1011.6 | |
| 20260505202037 | 12 | 0.0 | 1.6 | 0.10 | 1.75 | 1.75 | 97 | 1011.6 | |
| 20260505201101 | 12 | 0.0 | 1.6 | 0.05 | 1.70 | 1.70 | 97 | 1011.6 | |
| 20260505200749 | 12 | 0.0 | 1.6 | 0.03 | 1.68 | 1.68 | 97 | 1011.5 | |
| 20260505195101 | 12 | 0.0 | 1.6 | 0.03 | 1.68 | 1.68 | 97 | 1011.4 | |
| 20260505194037 | 12 | 0.0 | 1.6 | 0.00 | 1.65 | 1.65 | 97 | 1011.4 | |
| 20260505193101 | 12 | 0.0 | 3.2 | 0.00 | 1.65 | 1.65 | 97 | 1011.3 | |
| 20260505192037 | 12 | 0.0 | 1.6 | 0.00 | 1.65 | 1.65 | 97 | 1011.3 | |
| 20260505191104 | 12 | 0.0 | 1.6 | 0.00 | 1.65 | 1.65 | 97 | 1011.3 | |
| 20260505185102 | 12 | 0.0 | 1.6 | 0.00 | 1.65 | 1.65 | 97 | 1010.9 | |
| 20260505184037 | 12 | 0.0 | 1.6 | 0.00 | 1.65 | 1.65 | 97 | 1011.0 | |
| 20260505183101 | 12 | 0.0 | 1.6 | 0.00 | 1.65 | 1.65 | 97 | 1011.0 | |
| 20260505182037 | 12 | 0.0 | 1.6 | 0.00 | 1.65 | 1.65 | 97 | 1011.0 | |
| 20260505181101 | 12 | 0.0 | 1.6 | 0.03 | 1.65 | 1.65 | 97 | 1011.0 | |
| 20260505180749 | 12 | 0.0 | 1.6 | 0.05 | 1.65 | 1.65 | 97 | 1011.0 | |
| 20260505175101 | 12 | 0.0 | 1.6 | 0.05 | 1.65 | 1.65 | 97 | 1011.0 | |
| 20260505174037 | 12 | 0.0 | 1.6 | 0.05 | 1.65 | 1.65 | 96 | 1011.0 | |
| 20260505173101 | 12 | 0.0 | 1.6 | 0.10 | 1.65 | 1.65 | 96 | 1011.0 | |
| 20260505172037 | 12 | 0.0 | 1.6 | 0.10 | 1.65 | 1.65 | 96 | 1011.0 | |
| 20260505171101 | 12 | 0.0 | 1.6 | 0.10 | 1.63 | 1.63 | 96 | 1011.1 | |
| 20260505170037 | 12 | 0.0 | 3.2 | 0.05 | 1.60 | 1.60 | 96 | 1011.0 | |
| 20260505165103 | 12 | 0.0 | 3.2 | 0.10 | 1.60 | 1.60 | 95 | 1011.0 | |
| 20260505164037 | 12 | 0.0 | 3.2 | 0.15 | 1.60 | 1.60 | 95 | 1011.1 | |
| 20260505163103 | 12 | 203 | 0.0 | 4.8 | 0.15 | 1.55 | 1.55 | 95 | 1011.1 |
| 20260505162037 | 12 | 3 | 3.2 | 9.7 | 0.20 | 1.55 | 1.55 | 94 | 1011.2 |
| 20260505161102 | 12 | 0.0 | 3.2 | 0.20 | 1.52 | 1.52 | 94 | 1011.2 | |
| 20260505160749 | 12 | 282 | 3.2 | 12.9 | 0.20 | 1.52 | 1.52 | 94 | 1011.2 |
| 20260505153101 | 12 | 27 | 1.6 | 8.0 | 0.13 | 1.42 | 1.42 | 94 | 1011.3 |
| 20260505152038 | 12 | 66 | 1.6 | 4.8 | 0.05 | 1.35 | 1.35 | 94 | 1011.4 |
| 20260505151102 | 12 | 56 | 3.2 | 8.0 | 0.03 | 1.32 | 1.32 | 93 | 1011.5 |
| 20260505124037 | 12 | 110 | 3.2 | 11.3 | 0.10 | 1.27 | 1.27 | 93 | 1012.1 |
| 20260505123102 | 12 | 97 | 0.0 | 4.8 | 0.10 | 1.22 | 1.22 | 93 | 1012.1 |
| 20260505122038 | 12 | 128 | 1.6 | 6.4 | 0.10 | 1.22 | 1.22 | 93 | 1012.1 |
| 20260505121102 | 12 | 0.0 | 0.0 | 0.13 | 1.22 | 1.22 | 93 | 1012.1 | |
| 20260505120750 | 12 | 0.0 | 0.0 | 0.13 | 1.22 | 1.22 | 93 | 1012.1 | |
| 20260505115102 | 12 | 270 | 1.6 | 6.4 | 0.13 | 1.19 | 1.19 | 94 | 1012.1 |
| 20260505114038 | 12 | 270 | 0.0 | 3.2 | 0.10 | 1.17 | 1.17 | 94 | 1012.2 |
| 20260505113102 | 12 | 270 | 1.6 | 3.2 | 0.10 | 1.14 | 1.14 | 93 | 1012.2 |